Location: Township of Marena
(38.1747°N, 99.6798°W)
Time: 12:14:49
(UTC+00:00)

SL-08 R/B - Pass Details

Date: 26 October 2020
Orbit: 946 x 994 km, 83.0° (Epoch: 25 November)

Event Time Altitude Azimuth Distance (km) Brightness Sun altitude
Rises 01:11:36 0° 354° (N) 3,656 7.6 -17.3°
Reaches altitude 10° 01:14:07 10° 356° (N) 2,699 6.8 -17.8°
Maximum altitude 01:20:18 77° 83° (E) 980 4.3 -19.0°
Drops below altitude 10° 01:26:22 10° 169° (S) 2,660 6.7 -20.2°
Sets 01:28:51 0° 171° (S) 3,599 7.4 -20.7°
